JZA771 CYYZ-KDTW

Flight info

Callsign JZA771
Flight time 0h 45m
Altitude 32000
Route ANCOL5 GGUCE TPGUN2
Aircraft E75S/M-SDE3GILORVW/S

Departure

Time 2026-05-08 01:22
Airport Toronto Pearson International Airport (CYYZ)

Arrival

Time 2026-05-08 02:07
Airport Detroit Metropolitan Wayne County Airport (KDTW)
Time Latitude Longitude Altitude Speed Heading
2026-05-08 00:41 43.67951 -79.60738 565 ft 0 kts 227°
2026-05-08 00:50 43.67956 -79.60732 565 ft 2 kts 227°
2026-05-08 00:51 43.67951 -79.60738 559 ft 0 kts 227°
2026-05-08 01:05 43.67963 -79.60721 566 ft 4 kts 226°
2026-05-08 01:06 43.67981 -79.60694 562 ft 4 kts 226°
2026-05-08 01:06 43.68002 -79.60672 564 ft 4 kts 198°
2026-05-08 01:06 43.68025 -79.60676 566 ft 2 kts 143°
2026-05-08 01:06 43.68026 -79.60677 566 ft 0 kts 142°
2026-05-08 01:11 43.68023 -79.60674 559 ft 2 kts 139°
2026-05-08 01:11 43.67996 -79.60640 559 ft 8 kts 137°
2026-05-08 01:11 43.67949 -79.60577 559 ft 11 kts 135°
2026-05-08 01:12 43.67890 -79.60497 559 ft 12 kts 135°
2026-05-08 01:12 43.67835 -79.60399 564 ft 12 kts 133°
2026-05-08 01:12 43.67779 -79.60387 559 ft 10 kts 215°
2026-05-08 01:12 43.67726 -79.60460 567 ft 12 kts 226°
2026-05-08 01:13 43.67655 -79.60563 564 ft 16 kts 227°
2026-05-08 01:13 43.67570 -79.60685 560 ft 19 kts 226°
2026-05-08 01:13 43.67476 -79.60826 562 ft 21 kts 229°
2026-05-08 01:13 43.67383 -79.60991 559 ft 22 kts 231°
2026-05-08 01:14 43.67300 -79.61141 559 ft 16 kts 233°
2026-05-08 01:14 43.67277 -79.61255 562 ft 13 kts 305°
2026-05-08 01:14 43.67344 -79.61347 559 ft 14 kts 315°
2026-05-08 01:14 43.67420 -79.61448 560 ft 16 kts 317°
2026-05-08 01:15 43.67507 -79.61560 565 ft 18 kts 317°
2026-05-08 01:15 43.67602 -79.61684 561 ft 20 kts 316°
2026-05-08 01:15 43.67706 -79.61820 560 ft 21 kts 317°
2026-05-08 01:15 43.67822 -79.61969 560 ft 24 kts 318°
2026-05-08 01:16 43.67961 -79.62100 566 ft 25 kts 332°
2026-05-08 01:16 43.68094 -79.62260 559 ft 26 kts 315°
2026-05-08 01:16 43.68226 -79.62429 560 ft 27 kts 320°
2026-05-08 01:16 43.68368 -79.62604 560 ft 27 kts 316°
2026-05-08 01:17 43.68511 -79.62793 559 ft 29 kts 318°
2026-05-08 01:17 43.68663 -79.62988 559 ft 30 kts 316°
2026-05-08 01:17 43.68815 -79.63186 559 ft 31 kts 316°
2026-05-08 01:17 43.68968 -79.63388 562 ft 27 kts 316°
2026-05-08 01:18 43.69080 -79.63528 569 ft 12 kts 333°
2026-05-08 01:18 43.69149 -79.63487 565 ft 12 kts 46°
2026-05-08 01:18 43.69225 -79.63424 568 ft 14 kts
2026-05-08 01:18 43.69322 -79.63421 565 ft 8 kts
2026-05-08 01:19 43.69342 -79.63422 565 ft 0 kts 353°
2026-05-08 01:20 43.69343 -79.63422 565 ft 1 kts 353°
2026-05-08 01:20 43.69369 -79.63440 559 ft 7 kts 316°
2026-05-08 01:20 43.69396 -79.63516 558 ft 10 kts 260°
2026-05-08 01:21 43.69376 -79.63564 559 ft 0 kts 226°
2026-05-08 01:21 43.69375 -79.63565 561 ft 1 kts 226°
2026-05-08 01:21 43.69241 -79.63761 560 ft 68 kts 226°
2026-05-08 01:21 43.68736 -79.64491 560 ft 144 kts 226°
2026-05-08 01:22 43.67958 -79.65601 1110 ft 168 kts 226°
2026-05-08 01:22 43.67099 -79.66826 2070 ft 181 kts 231°
2026-05-08 01:22 43.66302 -79.68229 3118 ft 194 kts 236°
2026-05-08 01:22 43.65476 -79.69804 4219 ft 202 kts 236°
2026-05-08 01:23 43.64626 -79.71380 4861 ft 207 kts 236°
2026-05-08 01:23 43.63766 -79.72958 5018 ft 210 kts 235°
2026-05-08 01:23 43.62887 -79.74557 5620 ft 208 kts 235°
2026-05-08 01:23 43.61817 -79.75971 6104 ft 224 kts 220°
2026-05-08 01:24 43.60954 -79.76875 6313 ft 236 kts 220°
2026-05-08 01:24 43.59170 -79.78812 6761 ft 255 kts 221°
2026-05-08 01:24 43.57769 -79.80367 7280 ft 260 kts 222°
2026-05-08 01:24 43.56358 -79.81934 7878 ft 261 kts 222°
2026-05-08 01:25 43.54946 -79.83506 8443 ft 263 kts 223°
2026-05-08 01:25 43.53979 -79.84582 8823 ft 264 kts 223°
2026-05-08 01:25 43.52543 -79.86175 9393 ft 266 kts 223°
2026-05-08 01:25 43.51116 -79.87758 9934 ft 268 kts 223°
2026-05-08 01:26 43.49618 -79.89420 10194 ft 280 kts 223°
2026-05-08 01:26 43.48088 -79.91113 10363 ft 291 kts 222°
2026-05-08 01:26 43.47224 -79.92063 10605 ft 293 kts 222°
2026-05-08 01:26 43.45653 -79.93805 11050 ft 295 kts 222°
2026-05-08 01:27 43.44049 -79.95577 11503 ft 297 kts 222°
2026-05-08 01:27 43.42428 -79.97366 11983 ft 299 kts 222°
2026-05-08 01:27 43.40802 -79.99160 12462 ft 302 kts 222°
2026-05-08 01:27 43.39156 -80.00974 12952 ft 304 kts 223°
2026-05-08 01:28 43.37500 -80.02796 13495 ft 306 kts 223°
2026-05-08 01:28 43.35837 -80.04628 13993 ft 308 kts 223°
2026-05-08 01:28 43.34151 -80.06483 14472 ft 311 kts 223°
2026-05-08 01:28 43.32479 -80.08321 14952 ft 314 kts 223°
2026-05-08 01:29 43.30771 -80.10204 15445 ft 316 kts 224°
2026-05-08 01:29 43.29153 -80.12241 15937 ft 317 kts 227°
2026-05-08 01:29 43.27549 -80.14357 16454 ft 320 kts 228°
2026-05-08 01:29 43.25951 -80.16493 16980 ft 323 kts 228°
2026-05-08 01:30 43.24330 -80.18661 17498 ft 327 kts 229°
2026-05-08 01:30 43.22698 -80.20844 18045 ft 330 kts 229°
2026-05-08 01:30 43.21051 -80.23059 18549 ft 332 kts 229°
2026-05-08 01:30 43.19387 -80.25259 19075 ft 334 kts 229°
2026-05-08 01:31 43.17734 -80.27452 19581 ft 336 kts 229°
2026-05-08 01:31 43.16048 -80.29685 20097 ft 339 kts 229°
2026-05-08 01:31 43.14348 -80.31934 20584 ft 341 kts 229°
2026-05-08 01:31 43.12632 -80.34201 21059 ft 344 kts 229°
2026-05-08 01:32 43.10907 -80.36480 21506 ft 346 kts 229°
2026-05-08 01:32 43.09171 -80.38770 21880 ft 346 kts 229°
2026-05-08 01:32 43.07483 -80.40965 21932 ft 329 kts 229°
2026-05-08 01:32 43.05796 -80.43203 21959 ft 346 kts 229°
2026-05-08 01:33 43.04058 -80.45510 21964 ft 350 kts 229°
2026-05-08 01:33 43.02333 -80.47788 21944 ft 347 kts 229°
2026-05-08 01:33 43.00598 -80.50068 21954 ft 346 kts 229°
2026-05-08 01:33 42.98859 -80.52345 22029 ft 350 kts 229°
2026-05-08 01:34 42.97105 -80.54639 21656 ft 345 kts 229°
2026-05-08 01:34 42.95374 -80.56895 21685 ft 343 kts 229°
2026-05-08 01:34 42.93645 -80.59164 21757 ft 346 kts 229°
2026-05-08 01:34 42.91908 -80.61440 21822 ft 346 kts 229°
2026-05-08 01:35 42.90171 -80.63716 21878 ft 347 kts 229°
2026-05-08 01:35 42.88431 -80.65992 21920 ft 347 kts 229°
2026-05-08 01:35 42.86711 -80.68238 21949 ft 347 kts 229°
2026-05-08 01:35 42.84971 -80.70509 21941 ft 347 kts 230°
2026-05-08 01:36 42.83235 -80.72767 21961 ft 344 kts 230°
2026-05-08 01:36 42.81504 -80.75029 21974 ft 345 kts 230°
2026-05-08 01:36 42.79772 -80.77283 21959 ft 345 kts 230°
2026-05-08 01:36 42.78036 -80.79539 21959 ft 345 kts 230°
2026-05-08 01:37 42.76302 -80.81792 21960 ft 345 kts 230°
2026-05-08 01:37 42.74565 -80.84048 21960 ft 345 kts 230°
2026-05-08 01:37 42.72937 -80.86398 21957 ft 338 kts 242°
2026-05-08 01:37 42.71963 -80.89247 21975 ft 330 kts 255°
2026-05-08 01:38 42.71351 -80.92193 21956 ft 329 kts 261°
2026-05-08 01:38 42.70891 -80.95237 21963 ft 328 kts 263°
2026-05-08 01:38 42.70500 -80.98285 21957 ft 327 kts 264°
2026-05-08 01:38 42.70163 -81.01326 21952 ft 326 kts 266°
2026-05-08 01:39 42.69978 -81.04412 21959 ft 325 kts 269°
2026-05-08 01:39 42.69821 -81.07480 21954 ft 325 kts 269°
2026-05-08 01:39 42.69669 -81.10544 21956 ft 325 kts 269°
2026-05-08 01:39 42.69519 -81.13618 21953 ft 325 kts 269°
2026-05-08 01:40 42.69370 -81.16680 21957 ft 325 kts 269°
2026-05-08 01:40 42.69221 -81.19713 21953 ft 325 kts 269°
2026-05-08 01:40 42.69070 -81.22780 21955 ft 325 kts 269°
2026-05-08 01:40 42.68917 -81.25849 21944 ft 325 kts 269°
2026-05-08 01:41 42.68766 -81.28909 21934 ft 323 kts 269°
2026-05-08 01:41 42.68661 -81.31947 21791 ft 323 kts 270°
2026-05-08 01:41 42.68452 -81.34983 21453 ft 322 kts 267°
2026-05-08 01:41 42.68210 -81.37991 21135 ft 320 kts 267°
2026-05-08 01:42 42.67957 -81.40979 20819 ft 318 kts 266°
2026-05-08 01:42 42.67701 -81.43965 20496 ft 317 kts 266°
2026-05-08 01:42 42.67451 -81.46897 20190 ft 316 kts 266°
2026-05-08 01:42 42.67197 -81.49856 19886 ft 315 kts 266°
2026-05-08 01:43 42.66945 -81.52800 19593 ft 313 kts 266°
2026-05-08 01:43 42.66693 -81.55735 19288 ft 312 kts 266°
2026-05-08 01:43 42.66441 -81.58660 18994 ft 311 kts 266°
2026-05-08 01:43 42.66192 -81.61555 18700 ft 310 kts 266°
2026-05-08 01:44 42.65939 -81.64472 18406 ft 309 kts 266°
2026-05-08 01:44 42.65701 -81.67215 18101 ft 307 kts 266°
2026-05-08 01:44 42.65452 -81.70080 17766 ft 304 kts 266°
2026-05-08 01:44 42.65207 -81.72888 17440 ft 302 kts 266°
2026-05-08 01:45 42.64961 -81.75705 17120 ft 300 kts 266°
2026-05-08 01:45 42.64715 -81.78507 16799 ft 297 kts 266°
2026-05-08 01:45 42.64470 -81.81285 16480 ft 296 kts 266°
2026-05-08 01:45 42.64227 -81.84049 16166 ft 294 kts 266°
2026-05-08 01:46 42.63985 -81.86791 15849 ft 292 kts 266°
2026-05-08 01:46 42.63743 -81.89512 15538 ft 289 kts 266°
2026-05-08 01:46 42.63502 -81.92220 15227 ft 287 kts 266°
2026-05-08 01:46 42.63263 -81.94903 14929 ft 285 kts 266°
2026-05-08 01:47 42.63027 -81.97532 14627 ft 284 kts 266°
2026-05-08 01:47 42.62790 -82.00185 14329 ft 282 kts 266°
2026-05-08 01:47 42.62553 -82.02814 14036 ft 280 kts 266°
2026-05-08 01:48 42.62083 -82.08032 13399 ft 277 kts 266°
2026-05-08 01:48 42.61848 -82.10621 13066 ft 276 kts 266°
2026-05-08 01:48 42.61614 -82.13203 12745 ft 275 kts 266°
2026-05-08 01:48 42.61379 -82.15775 12423 ft 275 kts 266°
2026-05-08 01:49 42.61147 -82.18318 12105 ft 274 kts 266°
2026-05-08 01:49 42.60912 -82.20875 11792 ft 273 kts 265°
2026-05-08 01:49 42.60680 -82.23415 11479 ft 272 kts 265°
2026-05-08 01:49 42.60446 -82.25964 11170 ft 271 kts 265°
2026-05-08 01:50 42.60211 -82.28495 11034 ft 269 kts 265°
2026-05-08 01:50 42.59978 -82.31016 10979 ft 270 kts 265°
2026-05-08 01:50 42.59742 -82.33549 10953 ft 271 kts 265°
2026-05-08 01:50 42.59505 -82.36082 10946 ft 271 kts 265°
2026-05-08 01:51 42.59235 -82.38611 10943 ft 271 kts 262°
2026-05-08 01:51 42.58801 -82.41125 10752 ft 275 kts 258°
2026-05-08 01:51 42.58305 -82.43586 10495 ft 273 kts 257°
2026-05-08 01:51 42.57697 -82.46023 10241 ft 273 kts 252°
2026-05-08 01:52 42.56987 -82.48412 9994 ft 274 kts 251°
2026-05-08 01:52 42.56261 -82.50773 9720 ft 266 kts 251°
2026-05-08 01:52 42.55554 -82.53054 9427 ft 258 kts 251°
2026-05-08 01:52 42.54869 -82.55266 9135 ft 251 kts 251°
2026-05-08 01:53 42.54203 -82.57424 8826 ft 247 kts 251°
2026-05-08 01:53 42.53538 -82.59573 8579 ft 248 kts 251°
2026-05-08 01:53 42.52876 -82.61712 8320 ft 249 kts 250°
2026-05-08 01:53 42.52199 -82.63886 8291 ft 249 kts 251°
2026-05-08 01:54 42.51548 -82.66040 8066 ft 251 kts 251°
2026-05-08 01:54 42.50862 -82.68207 7806 ft 250 kts 250°
2026-05-08 01:54 42.50172 -82.70360 7551 ft 249 kts 250°
2026-05-08 01:54 42.49482 -82.72517 7291 ft 249 kts 250°
2026-05-08 01:55 42.48882 -82.74698 7036 ft 246 kts 263°
2026-05-08 01:55 42.48935 -82.76999 6783 ft 245 kts 279°
2026-05-08 01:55 42.49306 -82.79222 6533 ft 245 kts 285°
2026-05-08 01:55 42.49836 -82.81333 6254 ft 228 kts 292°
2026-05-08 01:56 42.50467 -82.83260 5966 ft 222 kts 282°
2026-05-08 01:56 42.50594 -82.85314 5686 ft 218 kts 272°
2026-05-08 01:56 42.50604 -82.87351 5418 ft 216 kts 270°
2026-05-08 01:56 42.50591 -82.89384 5153 ft 215 kts 270°
2026-05-08 01:57 42.50567 -82.91383 5031 ft 212 kts 270°
2026-05-08 01:57 42.50540 -82.93357 4974 ft 205 kts 270°
2026-05-08 01:57 42.50512 -82.95287 4762 ft 205 kts 270°
2026-05-08 01:57 42.50432 -82.97211 4548 ft 204 kts 265°
2026-05-08 01:58 42.50265 -82.99095 4336 ft 204 kts 264°
2026-05-08 01:58 42.50060 -83.01018 4134 ft 203 kts 263°
2026-05-08 01:58 42.49644 -83.02804 4050 ft 206 kts 241°
2026-05-08 01:58 42.48807 -83.04395 4010 ft 209 kts 235°
2026-05-08 01:59 42.47888 -83.05926 4004 ft 210 kts 233°
2026-05-08 01:59 42.46940 -83.07443 3995 ft 209 kts 233°
2026-05-08 01:59 42.45990 -83.08940 3988 ft 210 kts 232°
2026-05-08 01:59 42.45029 -83.10441 3857 ft 212 kts 232°
2026-05-08 02:00 42.44061 -83.11954 3648 ft 211 kts 232°
2026-05-08 02:00 42.43128 -83.13415 3624 ft 199 kts 232°
2026-05-08 02:00 42.42192 -83.14875 3522 ft 212 kts 232°
2026-05-08 02:00 42.41239 -83.16356 3419 ft 196 kts 232°
2026-05-08 02:01 42.40405 -83.17662 3291 ft 175 kts 231°
2026-05-08 02:01 42.39624 -83.18878 3114 ft 165 kts 231°
2026-05-08 02:01 42.38881 -83.20035 3026 ft 163 kts 231°
2026-05-08 02:01 42.38120 -83.21174 3005 ft 165 kts 226°
2026-05-08 02:02 42.37177 -83.22078 3001 ft 167 kts 213°
2026-05-08 02:02 42.36161 -83.22843 3009 ft 167 kts 213°
2026-05-08 02:02 42.35150 -83.23624 3015 ft 168 kts 212°
2026-05-08 02:02 42.34128 -83.24384 3011 ft 167 kts 212°
2026-05-08 02:03 42.33104 -83.25144 3025 ft 166 kts 212°
2026-05-08 02:03 42.32084 -83.25905 2922 ft 167 kts 212°
2026-05-08 02:03 42.31111 -83.26624 2708 ft 150 kts 212°
2026-05-08 02:03 42.30264 -83.27260 2545 ft 133 kts 212°
2026-05-08 02:04 42.29494 -83.27830 2381 ft 127 kts 212°
2026-05-08 02:04 42.28721 -83.28397 2227 ft 128 kts 213°
2026-05-08 02:04 42.27936 -83.28985 2067 ft 128 kts 212°
2026-05-08 02:04 42.27154 -83.29565 1902 ft 128 kts 212°
2026-05-08 02:05 42.26385 -83.30139 1742 ft 126 kts 213°
2026-05-08 02:05 42.25610 -83.30717 1524 ft 129 kts 211°
2026-05-08 02:05 42.24807 -83.31290 1362 ft 131 kts 212°
2026-05-08 02:05 42.24025 -83.31887 1172 ft 130 kts 211°
2026-05-08 02:06 42.23216 -83.32477 980 ft 132 kts 211°
2026-05-08 02:06 42.22420 -83.33071 804 ft 130 kts 211°
2026-05-08 02:06 42.21618 -83.33666 650 ft 127 kts 212°
2026-05-08 02:06 42.20958 -83.34157 644 ft 93 kts 208°
2026-05-08 02:07 42.20473 -83.34503 645 ft 70 kts 204°
2026-05-08 02:07 42.20226 -83.34689 644 ft 19 kts 220°
2026-05-08 02:07 42.20186 -83.34847 645 ft 19 kts 268°
2026-05-08 02:07 42.20179 -83.35025 645 ft 19 kts 266°
2026-05-08 02:08 42.20177 -83.35203 645 ft 19 kts 268°
2026-05-08 02:08 42.20174 -83.35394 645 ft 22 kts 269°
2026-05-08 02:08 42.20170 -83.35615 644 ft 26 kts 269°
2026-05-08 02:08 42.20165 -83.35866 644 ft 27 kts 268°
2026-05-08 02:09 42.20164 -83.36126 644 ft 27 kts 275°
2026-05-08 02:09 42.20194 -83.36381 644 ft 28 kts 281°
2026-05-08 02:09 42.20230 -83.36638 644 ft 20 kts 281°
2026-05-08 02:09 42.20279 -83.36816 644 ft 20 kts 300°
2026-05-08 02:10 42.20376 -83.36850 644 ft 17 kts 28°
2026-05-08 02:10 42.20485 -83.36775 645 ft 18 kts 31°
2026-05-08 02:10 42.20605 -83.36685 644 ft 21 kts 29°
2026-05-08 02:10 42.20742 -83.36585 644 ft 24 kts 27°
2026-05-08 02:11 42.20902 -83.36469 643 ft 27 kts 27°
2026-05-08 02:11 42.21068 -83.36344 643 ft 29 kts 28°
2026-05-08 02:11 42.21247 -83.36214 644 ft 30 kts 28°
2026-05-08 02:11 42.21437 -83.36073 644 ft 32 kts 29°
2026-05-08 02:12 42.21637 -83.35925 642 ft 34 kts 28°
2026-05-08 02:12 42.21815 -83.35795 642 ft 28 kts 28°
2026-05-08 02:12 42.21988 -83.35665 643 ft 29 kts 27°
2026-05-08 02:12 42.22147 -83.35549 646 ft 9 kts 29°
2026-05-08 02:13 42.22213 -83.35492 645 ft 15 kts 51°
2026-05-08 02:13 42.22264 -83.35364 645 ft 15 kts 21°
2026-05-08 02:13 42.22350 -83.35282 645 ft 17 kts 43°
2026-05-08 02:13 42.22436 -83.35135 644 ft 22 kts 47°
2026-05-08 02:14 42.22569 -83.35023 644 ft 24 kts 28°
2026-05-08 02:14 42.22688 -83.34934 644 ft 6 kts 30°
2026-05-08 02:14 42.22702 -83.34888 644 ft 5 kts 108°
2026-05-08 02:14 42.22687 -83.34850 644 ft 2 kts 119°
2026-05-08 02:15 42.22683 -83.34839 644 ft 0 kts 119°